User: anonymous   Login
Location: La Trinit�
(48.1620°N, 3.4512°W)
Time: 14:23:42
(UTC+00:00)
Language:

NOSS 3-4 (C) - Orbit

View from above orbital plane
View from above orbital plane
View from above satellite
View from above satellite

Ground track
Ground track

The orbit data is extracted from the following two-line orbital elements,

1 31708U 07027C   21204.87897376 0.00000000  00000-0  00000-0 0    02
2 31708  63.3959 222.4114 0318364  19.5445 340.4555 13.40814874    01
Epoch (UTC): 23 July 2021 21:05:43
Eccentricity: 0.0318364
inclination: 63.3959°
perigee height: 868 km
apogee height: 1344 km
right ascension of ascending node: 222.4114°
argument of perigee: 19.5445°
revolutions per day: 13.40814874
mean anomaly at epoch: 340.4555°
orbit number at epoch: 0

The dashed part of the orbit path shows where the satellite is in the earth's shadow,  

DLR